TimeMDT,TemperatureF,Dew PointF,Humidity,Sea Level PressureIn,VisibilityMPH,Wind Direction,Wind SpeedMPH,Gust SpeedMPH,PrecipitationIn,Events,Conditions,WindDirDegrees,DateUTC
12:53 AM,37.9,24.1,57,30.12,10.0,Calm,Calm,-,N/A,,Clear,0,2013-10-24 06:53:00
1:53 AM,35.1,24.1,64,30.13,10.0,Calm,Calm,-,N/A,,Clear,0,2013-10-24 07:53:00
2:53 AM,30.9,23.0,72,30.17,10.0,ENE,4.6,-,N/A,,Clear,70,2013-10-24 08:53:00
3:53 AM,32.0,24.1,73,30.15,10.0,NNE,5.8,-,N/A,,Clear,20,2013-10-24 09:53:00
4:53 AM,30.0,23.0,75,30.16,10.0,Calm,Calm,-,N/A,,Clear,0,2013-10-24 10:53:00
5:53 AM,34.0,23.0,64,30.17,10.0,Calm,Calm,-,N/A,,Clear,0,2013-10-24 11:53:00
6:53 AM,28.9,21.9,75,30.23,10.0,NNE,3.5,-,N/A,,Clear,20,2013-10-24 12:53:00
7:53 AM,30.0,23.0,75,30.27,10.0,Calm,Calm,-,N/A,,Clear,0,2013-10-24 13:53:00
8:53 AM,41.0,25.0,53,30.26,10.0,Calm,Calm,-,N/A,,Clear,0,2013-10-24 14:53:00
9:53 AM,48.9,27.0,43,30.25,10.0,Calm,Calm,-,N/A,,Clear,0,2013-10-24 15:53:00
10:53 AM,55.0,27.0,34,30.21,10.0,Variable,3.5,-,N/A,,Clear,0,2013-10-24 16:53:00
11:53 AM,61.0,24.1,24,30.19,10.0,Variable,6.9,-,N/A,,Clear,0,2013-10-24 17:53:00
12:53 PM,62.1,24.1,23,30.16,10.0,Variable,3.5,-,N/A,,Clear,0,2013-10-24 18:53:00
1:53 PM,64.0,25.0,23,30.12,10.0,ENE,5.8,-,N/A,,Clear,70,2013-10-24 19:53:00
2:53 PM,64.9,25.0,22,30.11,10.0,Calm,Calm,-,N/A,,Clear,0,2013-10-24 20:53:00
3:53 PM,66.0,24.1,20,30.09,10.0,South,3.5,-,N/A,,Clear,170,2013-10-24 21:53:00
4:53 PM,64.9,21.9,19,30.10,10.0,WSW,6.9,-,N/A,,Clear,240,2013-10-24 22:53:00
5:53 PM,59.0,24.1,26,30.12,10.0,West,11.5,-,N/A,,Clear,270,2013-10-24 23:53:00
6:53 PM,54.0,24.1,31,30.18,10.0,SW,6.9,-,N/A,,Scattered Clouds,220,2013-10-25 00:53:00
7:53 PM,54.0,26.1,34,30.20,10.0,WSW,6.9,-,N/A,,Overcast,250,2013-10-25 01:53:00
8:53 PM,55.9,25.0,30,30.14,10.0,WSW,4.6,-,N/A,,Overcast,240,2013-10-25 02:53:00
9:53 PM,55.0,25.0,31,30.15,10.0,SSW,9.2,-,N/A,,Overcast,210,2013-10-25 03:53:00
10:53 PM,53.1,27.0,37,30.16,10.0,WSW,9.2,-,N/A,,Overcast,240,2013-10-25 04:53:00
11:53 PM,54.0,32.0,43,30.14,10.0,South,11.5,16.1,N/A,,Overcast,170,2013-10-25 05:53:00